loading
DOY 175 | 2024-06-23T17:32:37Z

THOR ABLESTAR DEB, 552

Orbit data source: Space-Track

THOR ABLESTAR DEB, 552 is space debris in LEO originally from a launch on Thu, 29 Jun 1961 UTC launched from the Air Force Eastern Test Range (AFETR). Debris objects in space refer to the collection of defunct objects orbiting the Earth. Examples of debris include non-operational satellites, rocket bodies, and fragments generated from explosions, collisions, or faulty payload assembly.

Loading next visibility...
Loading greatness...
THOR ABLESTAR DEB details
NORAD ID552
COSPAR ID
1961-015GM
Orbit
LEO
Last TLE update21 hours ago
Origin
Flag of USUSAF SSD (US)
ManufacturerUnknown
BusUnknown
MotorUnknown
MassWet unknown, Dry mass unknown
Launch date (UTC)
1961-06-29 (63 years ago)
Launch vehicleUnknown
Launch site
Air Force Eastern Test Range (AFETR)
Object type
Payload
Rocket body
Debris
Radar Cross SectionSmall (<0.1 m²)
Predictive object data (real-time)
Latitude61.29779°
Longitude159.12377°
Altitude989.645 km
Speed7.327 km/s
Apparent Right ascension19h 45m 17s
Apparent Declination31° 34' 29"
Sunlit
Object is in daylight
Predictive observer data (real-time)
Local Sidereal Time04:41:39
Azimuth321.958° NNW
Elevation-6.817°
Doppler factor1
Orbital elements
Apogee989.298 km
Perigee823.742 km
Semi-major axis7,284.657 km
Eccentricity0.0113633
Inclination67.7386°
RAAN333.1278°
Arg. of periapsis281.6757°
True anomaly78.43329°
Mean anomaly77.1598°
Mean motion3.49084 °/min
BSTAR0.00076551
Period103.13 mins
Definitive object data (Epoch: 2024-06-22T20:33:53.193Z)
Latitude-0.00005°
Longitude113.14195°
Altitude892.884 km
Speed7.415 km/s
True Right ascension22h 12m 30s
True Declination0° 00' 00"
Sunlit
Object was in daylight at TLE epoch
TLE from 21 hours ago
0 THOR ABLESTAR DEB
1 00552U 61015GM  24174.85686567  .00001034  00000-0  76551-3 0  9999
2 00552  67.7386 333.1278 0113633 281.6757  77.1598 13.95839849155457
Epoch: 2024-06-22T20:33Z
No data available

THOR ABLESTAR DEB Visibility forecast

Observer location: 39.9160978°, -105.1181434, 0m alt.

THOR ABLESTAR DEB is not visible in the next 10 days
Span
Click to sort rows by Start time (UTC) header in descending order
Start Az.
Max El. time (UTC)
Max El. Az.
Max El.
End time (UTC)
End Az.